Stations météo

réclame
Mon MeteoGroup
Leeuwarden, Pays-Bas (6270): Température de l'air & dewpoint: 19.09.2018 09:00:00 - 25.09.2018 09:00:00 (CEST)Leeuwarden, Pays-Bas (6270): Température de l'air 5cm: 19.09.2018 09:00:00 - 25.09.2018 09:00:00 (CEST)Leeuwarden, Pays-Bas (6270): Vitesse du vent & gusts: 19.09.2018 09:00:00 - 25.09.2018 09:00:00 (CEST)Leeuwarden, Pays-Bas (6270): Direction du vent: 19.09.2018 09:00:00 - 25.09.2018 09:00:00 (CEST)Leeuwarden, Pays-Bas (6270): reduced air pressure: 19.09.2018 09:00:00 - 25.09.2018 09:00:00 (CEST)Leeuwarden, Pays-Bas (6270): visibility: 19.09.2018 09:00:00 - 25.09.2018 09:00:00 (CEST)Leeuwarden, Pays-Bas (6270): Quantités de précipitations: 19.09.2018 09:00:00 - 25.09.2018 09:00:00 (CEST)
Date & Time tt [°C] td [°C] tt 5cm [°C] ff [km/h] ff [knt] fx [km/h] fx [knt] dd ppp [hPa] vv [km] rr [mm]
25.09.2018 09:00:00 8,5 7,2 8,3 8 4 11 6 SSW 1037,6 10 0,0
25.09.2018 08:00:00 7,3 6,7 6,4 4 2 11 6 - 1037,3 10 0,0
25.09.2018 07:00:00 7,0 6,6 5,4 4 2 11 6 SW 1037,0 10 0,0
25.09.2018 06:00:00 7,4 6,8 7,0 8 4 11 6 S 1036,9 10 0,2
25.09.2018 05:00:00 6,5 5,7 5,8 8 4 11 6 SSW 1036,8 10 0,0
25.09.2018 04:00:00 6,5 5,7 4,4 8 4 29 16 - 1036,8 10 0,0
25.09.2018 03:00:00 6,4 5,8 5,8 8 4 14 8 SW 1036,5 10 0,0
25.09.2018 02:00:00 7,9 6,6 4,9 2 1 22 12 - 1036,4 10 0,0
25.09.2018 01:00:00 6,8 6,0 4,6 5 3 7 4 SW 1036,4 10 0,0
25.09.2018 00:00:00 8,0 6,7 5,8 5 3 11 6 NNW 1036,0 10 0,0
24.09.2018 23:00:00 7,8 6,0 5,6 5 3 18 10 WNW 1035,7 10 0,0
24.09.2018 22:00:00 9,9 7,2 8,0 9 5 25 14 NW 1035,3 10 0,3
24.09.2018 21:00:00 8,2 6,0 5,7 8 4 29 16 WNW 1034,8 10 0,1
24.09.2018 20:00:00 9,5 5,8 8,4 16 9 25 14 NW 1034,3 10 0,0
24.09.2018 19:00:00 10,4 7,1 9,6 16 9 25 14 NW 1033,8 10 0,0
24.09.2018 18:00:00 10,2 7,0 9,7 34 18 47 25 NNW 1033,8 10 0,4
24.09.2018 17:00:00 11,2 7,9 10,6 22 12 58 31 NW 1033,5 10 1,2
24.09.2018 16:00:00 12,6 7,5 12,1 28 15 58 31 WNW 1033,2 10 0,0
24.09.2018 15:00:00 12,8 8,2 12,7 26 14 58 31 NNW 1033,0 41 0,4
24.09.2018 14:00:00 12,9 6,5 13,3 28 15 50 27 NW 1032,7 10 0,0
24.09.2018 13:00:00 13,9 6,7 14,4 34 18 50 27 NW 1032,1 10 0,0
24.09.2018 12:00:00 13,0 7,5 12,5 37 20 54 29 NW 1031,9 10 0,0
24.09.2018 11:00:00 13,1 7,0 13,0 35 19 50 27 NW 1031,0 10 0,0
24.09.2018 10:00:00 11,9 7,1 10,5 24 13 40 21 NW 1030,3 10 0,2
24.09.2018 09:00:00 9,6 6,3 8,9 29 16 50 27 NW 1029,4 10 1,3
24.09.2018 08:00:00 9,0 5,4 7,6 16 9 43 23 NW 1028,7 10 0,0
24.09.2018 07:00:00 10,0 4,9 8,3 16 9 36 19 NW 1027,9 10 0,0
24.09.2018 06:00:00 10,3 4,5 9,4 24 13 32 18 NW 1027,4 10 0,0
24.09.2018 05:00:00 10,1 4,6 8,9 24 13 43 23 NW 1026,8 10 0,0
24.09.2018 04:00:00 10,3 4,9 9,3 24 13 40 21 NNW 1025,9 10 0,0
24.09.2018 03:00:00 10,4 3,7 9,6 26 14 36 19 NW 1025,2 10 0,0
24.09.2018 02:00:00 10,7 5,3 9,5 26 14 50 27 NW 1024,1 10 0,0
24.09.2018 01:00:00 10,8 6,2 9,8 29 16 50 27 NNW 1023,3 10 0,0
24.09.2018 00:00:00 9,8 5,1 8,7 28 15 50 27 NNW 1022,3 10 0,0
23.09.2018 23:00:00 10,6 5,5 9,9 28 15 50 27 NNW 1021,2 10 0,0
23.09.2018 22:00:00 9,9 5,8 9,1 34 18 65 35 NNW 1019,8 10 0,9
23.09.2018 21:00:00 10,5 5,8 9,4 22 12 36 19 NNW 1018,4 10 0,0
23.09.2018 20:00:00 11,3 6,1 9,8 22 12 54 29 NNW 1017,0 10 0,1
23.09.2018 19:00:00 11,0 6,8 10,1 13 7 29 16 N 1015,4 10 0,2
23.09.2018 18:00:00 10,3 9,0 10,4 8 4 14 8 WSW 1014,4 10 0,3
23.09.2018 17:00:00 10,6 8,7 10,1 13 7 40 21 NNE 1013,4 10 0,8
23.09.2018 16:00:00 10,1 8,5 9,7 15 8 32 18 NNW 1012,7 10 2,1
23.09.2018 15:00:00 10,8 8,7 10,9 5 3 11 6 WSW 1012,2 10 0,3
23.09.2018 14:00:00 11,0 8,7 11,1 4 2 7 4 SW 1012,2 10 0,3
23.09.2018 13:00:00 11,2 9,2 11,3 4 2 11 6 WNW 1012,8 10 0,5
23.09.2018 12:00:00 11,4 9,1 11,4 11 6 14 8 NW 1012,5 10 0,5
23.09.2018 11:00:00 12,0 9,6 11,8 9 5 18 10 N 1012,4 10 0,0
23.09.2018 10:00:00 11,2 10,1 11,2 8 4 11 6 N 1012,6 10 0,0
23.09.2018 09:00:00 10,8 10,0 10,7 4 2 7 4 WSW 1012,9 10 0,0
23.09.2018 08:00:00 10,7 10,0 10,3 5 3 7 4 S 1012,8 10 0,0
23.09.2018 07:00:00 10,6 9,7 10,1 8 4 7 4 SSW 1013,2 10 0,0
23.09.2018 06:00:00 10,5 9,8 10,2 8 4 11 6 S 1013,1 10 0,0
23.09.2018 05:00:00 10,5 9,6 10,2 8 4 11 6 S 1013,9 10 0,0
23.09.2018 04:00:00 10,7 9,8 10,3 8 4 11 6 S 1014,2 10 0,0
23.09.2018 03:00:00 10,8 9,8 10,3 5 3 11 6 S 1014,7 10 0,0
23.09.2018 02:00:00 10,9 9,9 10,5 8 4 11 6 SSW 1015,3 10 0,0
23.09.2018 01:00:00 11,1 9,8 10,7 8 4 14 8 SSW 1015,6 10 0,0
23.09.2018 00:00:00 10,2 7,9 9,5 9 5 14 8 S 1015,6 10 0,0
22.09.2018 23:00:00 9,9 6,9 8,2 9 5 11 6 SSW 1016,0 10 0,0
22.09.2018 22:00:00 10,9 7,0 9,7 8 4 11 6 SW 1016,1 10 0,0
22.09.2018 21:00:00 11,1 6,8 10,2 11 6 14 8 WSW 1016,2 10 0,0
22.09.2018 20:00:00 11,9 6,8 11,0 11 6 22 12 W 1015,9 10 0,0
22.09.2018 19:00:00 12,8 6,5 12,2 15 8 29 16 W 1015,7 10 0,0
22.09.2018 18:00:00 13,1 6,8 12,6 21 11 32 18 W 1015,9 10 0,0
22.09.2018 17:00:00 13,6 7,5 13,4 22 12 40 21 W 1016,3 10 0,0
22.09.2018 16:00:00 13,8 9,0 14,0 22 12 40 21 W 1016,4 10 0,0
22.09.2018 15:00:00 14,0 8,0 13,7 28 15 43 23 W 1016,1 10 0,0
22.09.2018 14:00:00 12,9 8,9 12,8 22 12 40 21 W 1016,5 10 0,0
22.09.2018 13:00:00 13,6 9,3 13,9 28 15 47 25 W 1016,5 10 0,0
22.09.2018 12:00:00 12,7 8,3 12,6 28 15 50 27 W 1016,3 10 0,3
22.09.2018 11:00:00 14,3 10,0 14,2 21 11 43 23 W 1015,9 10 0,0
22.09.2018 10:00:00 13,8 8,7 13,2 26 14 36 19 WSW 1015,6 10 0,0
22.09.2018 09:00:00 12,0 9,4 11,3 21 11 43 23 WSW 1015,4 10 0,2
22.09.2018 08:00:00 12,2 8,7 11,4 18 10 25 14 WSW 1015,0 10 0,0
22.09.2018 07:00:00 11,3 7,8 10,0 18 10 32 18 W 1014,8 10 0,0
22.09.2018 06:00:00 11,5 8,6 10,1 16 9 43 23 W 1014,4 10 0,2
22.09.2018 05:00:00 9,8 8,4 8,8 13 7 29 16 WSW 1014,2 10 1,0
22.09.2018 04:00:00 11,2 8,4 10,4 26 14 47 25 W 1013,3 9 1,6
22.09.2018 03:00:00 11,6 8,8 10,6 13 7 40 21 W 1012,9 10 1,8
22.09.2018 02:00:00 12,3 9,4 11,1 13 7 29 16 WNW 1012,1 10 0,2
22.09.2018 01:00:00 10,1 8,5 9,3 11 6 47 25 W 1010,3 10 0,6
22.09.2018 00:00:00 11,8 8,9 10,6 29 16 58 31 W 1009,7 10 0,8
21.09.2018 23:00:00 11,9 8,9 11,1 18 10 65 35 W 1008,2 10 1,0
21.09.2018 22:00:00 11,6 8,2 10,9 34 18 50 27 W 1007,7 10 0,2
21.09.2018 21:00:00 13,0 8,6 12,1 29 16 43 23 WSW 1007,2 10 0,0
21.09.2018 20:00:00 13,0 7,3 11,7 31 17 47 25 W 1006,7 10 0,2
21.09.2018 19:00:00 12,1 7,6 11,4 18 10 65 35 WSW 1006,3 10 0,7
21.09.2018 18:00:00 13,2 6,0 12,9 35 19 58 31 WSW 1006,0 10 0,0
21.09.2018 17:00:00 12,4 5,8 12,3 39 21 65 35 WSW 1006,0 10 0,0
21.09.2018 16:00:00 14,8 5,8 14,9 46 25 68 37 WSW 1005,3 10 0,0
21.09.2018 15:00:00 13,9 7,4 13,7 50 27 72 39 WSW 1004,8 10 0,0
21.09.2018 14:00:00 15,0 7,0 14,5 50 27 65 35 WSW 1003,7 10 0,0
21.09.2018 13:00:00 15,0 8,4 14,8 44 24 68 37 W 1002,6 10 0,0
21.09.2018 12:00:00 14,7 7,1 14,8 44 24 65 35 W 1001,7 10 0,0
21.09.2018 11:00:00 14,2 8,4 14,1 46 25 68 37 WSW 1000,7 10 0,0
21.09.2018 10:00:00 14,7 10,5 14,3 44 24 65 35 W 999,2 10 0,0
21.09.2018 09:00:00 14,2 12,7 13,8 34 18 72 39 SW 997,8 10 0,8
21.09.2018 08:00:00 18,0 14,2 17,6 35 19 72 39 S 996,1 10 0,0
21.09.2018 07:00:00 18,7 13,6 18,2 26 14 47 25 S 996,8 10 0,0
21.09.2018 06:00:00 19,0 13,6 18,3 28 15 47 25 S 997,7 10 0,0
21.09.2018 05:00:00 18,8 13,8 18,2 22 12 40 21 S 999,0 10 0,0
21.09.2018 04:00:00 19,3 13,8 18,7 24 13 40 21 S 1000,8 10 0,0
21.09.2018 03:00:00 19,1 13,8 18,2 18 10 36 19 S 1002,1 10 0,0
21.09.2018 02:00:00 18,9 14,1 18,2 21 11 29 16 S 1003,5 10 0,0
21.09.2018 01:00:00 18,2 14,0 17,4 21 11 32 18 S 1004,8 10 0,0
21.09.2018 00:00:00 17,8 14,1 17,1 16 9 29 16 S 1005,7 10 0,0
20.09.2018 23:00:00 17,0 15,2 16,1 13 7 22 12 SSE 1006,9 10 0,0
20.09.2018 22:00:00 16,7 15,0 15,7 11 6 18 10 S 1008,3 10 0,0
20.09.2018 21:00:00 16,7 14,8 15,7 9 5 14 8 SSW 1009,2 10 0,0
20.09.2018 20:00:00 17,0 14,7 15,9 9 5 18 10 SSW 1010,0 10 0,0
20.09.2018 19:00:00 18,7 14,8 18,0 13 7 29 16 SW 1010,5 10 0,0
20.09.2018 18:00:00 19,4 14,7 19,1 21 11 40 21 SW 1011,2 10 0,0
20.09.2018 17:00:00 19,6 15,0 19,4 29 16 47 25 SW 1011,8 10 0,0
20.09.2018 16:00:00 19,7 14,7 19,6 28 15 47 25 SW 1012,5 10 0,0
20.09.2018 15:00:00 19,9 15,1 19,7 35 19 58 31 SW 1012,9 10 0,0
20.09.2018 14:00:00 18,5 15,8 18,4 31 17 54 29 SW 1013,1 10 0,0
20.09.2018 13:00:00 19,9 14,7 19,9 29 16 50 27 SW 1013,4 10 0,0
20.09.2018 12:00:00 19,3 15,7 19,3 29 16 50 27 SSW 1013,3 10 0,0
20.09.2018 11:00:00 19,1 15,5 18,8 29 16 47 25 SSW 1013,5 10 0,0
20.09.2018 10:00:00 18,7 15,8 19,2 28 15 43 23 SSW 1013,4 10 0,0
20.09.2018 09:00:00 17,8 15,8 17,7 18 10 32 18 SSW 1013,7 10 0,0
20.09.2018 08:00:00 17,5 15,4 17,1 18 10 29 16 SSW 1013,6 10 0,0
20.09.2018 07:00:00 16,8 15,3 16,1 16 9 29 16 SW 1013,8 10 0,0
20.09.2018 06:00:00 16,8 15,3 16,2 15 8 25 14 SSW 1013,7 10 0,0
20.09.2018 05:00:00 16,9 15,3 15,9 15 8 22 12 SW 1014,0 10 0,0
20.09.2018 04:00:00 16,7 14,9 16,0 15 8 25 14 SSW 1014,0 10 0,0
20.09.2018 03:00:00 17,2 14,9 16,5 16 9 29 16 SSW 1014,0 10 0,0
20.09.2018 02:00:00 17,9 14,6 17,1 21 11 36 19 SW 1013,9 10 0,0
20.09.2018 01:00:00 18,0 14,6 17,3 24 13 40 21 SW 1014,1 10 0,0
20.09.2018 00:00:00 18,4 14,7 17,5 26 14 43 23 SW 1014,3 10 0,0
19.09.2018 23:00:00 18,6 15,1 18,0 34 18 50 27 SW 1014,2 10 0,0
19.09.2018 22:00:00 18,9 14,9 18,1 35 19 50 27 SW 1014,1 10 0,0
19.09.2018 21:00:00 19,0 14,6 18,3 31 17 58 31 SW 1014,2 10 0,0
19.09.2018 20:00:00 19,6 14,4 18,9 35 19 65 35 SW 1013,7 10 0,0
19.09.2018 19:00:00 20,5 14,2 19,9 41 22 68 37 SW 1013,4 10 0,0
19.09.2018 18:00:00 21,5 14,5 21,3 24 13 47 25 SSW 1013,2 10 0,0
19.09.2018 17:00:00 21,4 14,3 21,4 31 17 54 29 SW 1013,4 10 0,0
19.09.2018 16:00:00 22,4 14,1 21,5 35 19 54 29 SW 1013,4 10 0,0
19.09.2018 15:00:00 21,5 14,4 21,6 31 17 47 25 SSW 1013,3 10 0,0
19.09.2018 14:00:00 21,4 15,4 21,6 29 16 47 25 SSW 1013,7 10 0,0
19.09.2018 13:00:00 21,1 15,5 21,9 28 15 43 23 SSW 1013,7 10 0,0
19.09.2018 12:00:00 19,9 15,5 20,4 22 12 36 19 SSW 1013,7 10 0,0
19.09.2018 11:00:00 18,5 14,8 18,5 16 9 29 16 S 1013,8 10 0,0
19.09.2018 10:00:00 17,0 14,4 17,1 15 8 29 16 S 1014,0 10 0,0
19.09.2018 09:00:00 16,4 14,0 16,1 16 9 29 16 S 1014,4 10 0,0

tt = Température de l'air
td = dewpoint
tt 5cm = Température de l'air 5cm
ff = Vitesse du vent
fx = gusts
dd = Direction du vent
ppp = reduced air pressure
vv = visibility
rr = Quantités de précipitations

stations d'obs. à proximité